Home > Weather > Schwechat > Past weeks

Flag for Austria Past Weather in Schwechat, Lower Austria, Austria — Yesterday and Last 2 Weeks

Now
79 °F

Passing clouds.


Feels Like: 80 °F
Forecast: 61 / 80 °F
Wind: 12 mph from Southeast

Location: Vienna Schwechat-Flughafen Airport

Current Time: May 28, 2016 at 2:00:06 PM

Latest Report: May 28, 2016 at 1:20 PM


Visibility: N/A

Pressure: 29.92 "Hg

Humidity: 58%

Dew Point: 63 °F

Location of SchwechatLocation

Past Weather in Schwechat — Graph

°F

Schwechat Temperature Yesterday

Maximum temperature yesterday: 77 °F (at 1:20 PM)
Minimum temperature yesterday: 54 °F (at 3:50 AM)
Average temperature yesterday: 66 °F

High & Low Weather Summary for the Past Weeks

 TemperatureHumidityPressure
High79 °F (May 23, 4:20 PM)100% (May 13, 10:50 PM)30.15 "Hg (May 13, 10:50 PM)
Low45 °F (May 16, 2:20 AM)36% (May 17, 12:20 PM)29.39 "Hg (May 13, 12:20 PM)
Average60 °F66%29.91 "Hg
* Reported May 13 12:20 PM — May 28 12:20 PM, Schwechat, Weather by CustomWeather, © 2016

Note: Actual official high and low records may vary slightly from our data, if they occured in-between our weather recording intervals... More about our weather records

Advertising

Schwechat Weather History for the Previous 24 Hours

Scroll right to see more
 ConditionsComfort  
Time TempWeatherWind HumidityBarometerVisibility
12:20 PM
Sat, May 28
77 °FPassing clouds.8 mph57%29.92 "HgN/A
11:50 AM75 °FPassing clouds.8 mph61%29.95 "HgN/A
11:20 AM73 °FPassing clouds.9 mph65%29.95 "HgN/A
10:50 AM73 °FPassing clouds.5 mph65%29.95 "HgN/A
10:20 AM73 °FSunny.5 mph65%29.95 "Hg10 mi
9:50 AM70 °FPassing clouds.6 mph73%29.95 "HgN/A
9:20 AM70 °FSunny.7 mph73%29.95 "Hg10 mi
8:50 AM70 °FPassing clouds.6 mph73%29.95 "HgN/A
8:20 AM68 °FPassing clouds.5 mph78%29.95 "HgN/A
7:50 AM66 °FScattered clouds.6 mph83%29.95 "HgN/A
7:20 AM66 °FScattered clouds.1 mph78%29.95 "HgN/A
6:50 AM63 °FBroken clouds.5 mph88%29.95 "HgN/A
6:20 AM61 °FBroken clouds.6 mph88%29.95 "HgN/A
5:50 AM63 °FPartly cloudy.5 mph83%29.95 "HgN/A
5:20 AM61 °FPartly cloudy.2 mph88%29.95 "HgN/A
4:50 AM61 °FPartly cloudy.7 mph88%29.95 "HgN/A
4:20 AM61 °FPartly cloudy.6 mph88%29.95 "HgN/A
3:50 AM61 °FPassing clouds.5 mph88%29.95 "HgN/A
3:20 AM63 °FPartly cloudy.5 mph83%29.95 "HgN/A
2:50 AM64 °FPassing clouds.6 mph78%29.95 "HgN/A
2:20 AM64 °FPassing clouds.9 mph78%29.95 "HgN/A
1:50 AM64 °FPartly cloudy.5 mph78%29.95 "HgN/A
1:20 AM64 °FPassing clouds.2 mph78%29.95 "HgN/A
12:50 AM64 °FRain showers. Passing clouds.8 mph83%29.95 "HgN/A
12:20 AM64 °FPassing clouds.3 mph78%29.98 "HgN/A
11:50 PM
Fri, May 27
64 °FPartly cloudy.5 mph78%29.98 "HgN/A
11:20 PM64 °FPartly cloudy.6 mph78%29.98 "HgN/A
10:50 PM64 °FPartly cloudy.8 mph73%29.98 "HgN/A
10:20 PM64 °FPartly cloudy.2 mph78%29.98 "HgN/A
9:50 PM66 °FPartly cloudy.9 mph78%29.98 "HgN/A
9:20 PM66 °FBroken clouds.5 mph78%29.95 "HgN/A
8:50 PM70 °FBroken clouds.9 mph73%29.95 "HgN/A
8:20 PM70 °FBroken clouds.7 mph73%29.95 "HgN/A
7:50 PM72 °FBroken clouds.8 mph69%29.95 "HgN/A
7:20 PM73 °FSprinkles. Broken clouds.8 mph65%29.95 "HgN/A
6:50 PM72 °FBroken clouds.5 mph65%29.98 "HgN/A
6:20 PM72 °FBroken clouds.5 mph65%29.98 "HgN/A
5:50 PM72 °FPartly sunny.10 mph61%29.95 "HgN/A
5:20 PM75 °FThundershowers. Broken clouds.12 mph57%29.98 "HgN/A
4:50 PM77 °FBroken clouds.10 mph51%29.98 "HgN/A
4:20 PM77 °FPartly sunny.9 mph54%29.95 "HgN/A
3:50 PM77 °FPartly sunny.9 mph54%29.95 "HgN/A
3:20 PM77 °FBroken clouds.14 mph57%29.95 "HgN/A
2:50 PM77 °FBroken clouds.14 mph57%29.98 "HgN/A
2:20 PM77 °FPartly sunny.13 mph57%29.98 "HgN/A
Weather by CustomWeather, © 2016

See weather overviewHow to use our weather pages